{"data":{"norad_id":65922,"intl_designator":"2025-225N","name":"STARLINK-35544","alt_names":[],"object_type":"PAYLOAD","status":"ACTIVE","operator":null,"country":"US","launch_date":"2025-10-08","launch_site_code":"AFWTR","launch_vehicle":null,"mission":null,"orbit_class":"UNKNOWN","rcs_meters":null,"size_class":null,"mass_kg":null,"dimensions":null,"purposes":["comms"],"wikipedia_slug":null,"has_3d_model":false,"image_url":null,"decayed_at":null,"tle_current":{"epoch":"2026-09-20T12:04:44.943744Z","epoch_age_seconds":102799,"freshness":"FRESH","line1":"1 65922U 25225N   26263.50329796  .00020436  00000+0  61425-3 0  9995","line2":"2 65922  53.1599 337.3400 0001144  72.0792 288.0336 15.34403742 54287","mean_motion":15.34403742,"eccentricity":0.0001144,"inclination_deg":53.1599,"raan_deg":337.34,"arg_perigee_deg":72.0792,"mean_anomaly_deg":288.0336,"bstar":0.00061425,"rev_number":5428,"period_min":93.847529211774,"perigee_km":461.90952736599,"apogee_km":463.47470906824,"semimajor_km":6840.8291182171,"source":"CELESTRAK","updated_at":"2026-09-21T09:00:35.764678Z"}}}